Vorticity
18 9 7 10 6 26 29 28 -28 4 8 12 4 -2 1 65 -9 15 11 1 4 6 5 12 13 2 15 5 11 12 11 10 14 15 14 13 11 12 9 8 6 7 8 10
20 11 3 9 7 30 30 21 6 -1 17 9 4 18 15 -5 27 -0 16 17 6 13 13 10 7 8 8 11 4 10 9 9 7 6 10 9 7 9 10 10 9 7 7 11
13 5 7 11 7 30 31 0 -6 11 21 14 -15 8 27 11 -7 9 8 1 11 14 4 5 12 9 8 10 8 7 8 7 6 8 6 9 9 9 8 8 8 8 13 5
14 5 4 12 7 33 50 1 3 8 7 -1 22 25 6 36 6 15 2 -8 2 6 12 21 6 9 10 11 10 7 4 5 8 8 7 6 5 7 9 10 9 8 6 3
14 6 7 10 7 38 56 7 11 5 10 5 6 5 24 15 12 24 -3 7 12 5 4 19 1 7 10 9 11 9 8 8 6 7 7 9 12 9 8 10 6 5 8 11
14 2 11 6 7 42 46 -2 -14 15 10 4 14 5 23 20 20 15 12 7 6 6 8 23 6 7 7 8 8 7 6 7 8 8 11 11 7 6 7 6 9 7 13 8
10 5 12 6 6 35 41 11 0 -14 9 -3 5 5 8 9 13 14 13 20 10 13 9 24 9 6 8 8 8 9 10 11 10 10 11 12 8 7 6 8 9 11 16 18
7 3 10 7 7 27 51 4 12 3 5 -0 -1 10 3 8 4 12 15 8 13 6 8 13 6 13 13 13 11 10 9 7 6 8 7 11 11 9 8 10 13 14 14 18
7 4 10 9 15 30 48 -25 2 7 10 5 -4 19 -5 3 8 8 8 6 10 10 15 11 7 11 8 4 0 0 2 2 4 4 5 9 7 6 8 11 12 4 17 19
5 6 5 9 28 36 8 3 15 14 13 22 3 3 9 6 4 5 6 4 5 10 11 10 7 9 8 9 13 13 13 11 12 13 8 6 6 10 14 12 10 6 12 17
16 8 6 8 10 40 21 2 -4 -10 -1 13 -2 6 5 7 8 10 3 2 7 7 12 14 11 13 13 13 11 12 10 11 12 14 13 8 7 15 12 12 6 7 -2 6
9 11 8 8 7 9 38 36 2 11 5 10 10 -6 2 4 2 6 7 6 5 9 11 12 16 13 9 11 12 11 10 12 12 9 11 10 14 10 15 9 1 6 6 11
4 10 7 9 9 6 34 47 -2 11 -9 2 3 5 5 4 4 1 5 4 9 6 7 8 9 8 8 8 9 11 8 8 9 9 12 13 12 18 11 11 4 5 10 5
10 16 6 12 11 5 28 44 13 1 12 -1 2 7 5 8 15 11 1 3 5 4 6 5 4 9 9 10 15 12 3 7 12 13 10 12 10 14 9 6 4 9 13 6
19 13 13 20 9 1 39 53 14 -5 -2 6 9 12 15 9 10 7 3 10 9 1 1 7 5 5 16 11 17 6 2 7 8 13 7 14 12 17 9 10 7 9 7 9
11 13 11 8 4 19 42 48 11 7 -2 8 8 19 15 8 8 9 8 4 7 9 5 8 7 10 15 16 12 8 2 4 15 12 8 12 12 13 10 6 10 5 8 10
12 10 7 11 28 48 51 34 10 9 -0 2 13 18 11 7 -3 6 6 6 13 14 11 13 16 15 12 14 4 5 6 6 14 13 10 9 11 13 10 8 11 7 9 12
11 9 20 49 47 55 41 18 16 6 1 9 16 13 4 5 9 13 17 14 9 17 18 17 17 15 8 4 9 14 17 18 13 12 12 13 15 11 9 7 13 3 -0 9
15 37 62 49 44 19 11 15 13 7 11 13 6 6 5 6 14 20 7 3 14 15 3 6 22 26 20 25 10 8 9 17 8 15 18 12 18 9 6 11 7 2 2 4
39 55 24 11 12 17 9 8 8 8 10 8 4 10 13 16 19 11 1 12 16 15 14 11 4 7 15 19 19 17 9 17 9 16 15 10 17 9 4 26 3 -0 1 9
36 13 7 5 8 6 5 6 8 10 2 9 3 6 14 22 19 6 1 16 11 11 15 9 10 7 12 25 27 16 14 19 20 11 15 19 9 12 5 16 -1 -0 8 17
12 5 4 5 8 6 3 6 10 4 -3 -1 7 4 11 26 14 6 12 12 11 12 12 9 14 18 16 15 12 23 17 25 14 13 13 12 7 13 22 2 2 6 13 14
9 4 5 8 9 10 8 1 8 5 1 5 7 7 5 23 19 19 8 9 10 9 7 15 15 12 11 19 15 23 16 15 14 9 7 8 26 25 6 9 8 13 5 13
10 4 4 6 14 5 1 5 4 5 3 4 6 5 2 7 20 22 7 10 10 3 4 9 24 25 19 23 20 9 5 3 6 7 22 30 7 8 9 10 13 11 9 21
13 5 5 6 5 5 7 2 6 9 7 7 11 9 9 3 9 15 22 10 4 5 3 2 7 24 21 18 16 25 6 13 20 14 16 9 9 10 14 11 11 13 13 16
17 11 4 1 1 1 6 0 3 3 3 7 4 13 10 4 4 10 7 14 18 15 10 7 7 4 5 11 19 33 25 20 9 8 10 10 10 11 12 12 5 6 3 6
20 27 14 9 4 3 2 -0 -1 8 3 0 4 5 6 15 10 8 9 9 8 11 12 12 10 7 4 4 2 5 11 18 15 9 12 15 13 11 8 1 7 12 16 8
Height
5595 5589 5581 5571 5562 5553 5543 5540 5539 5538 5535 5533 5530 5529 5527 5529 5531 5534 5540 5545 5551 5557 5562 5567 5573 5578 5583 5588 5592 5598 5602 5607 5611 5615 5619 5623 5627 5632 5635 5639 5644 5646 5650 5654
5593 5587 5580 5571 5563 5554 5549 5547 5546 5545 5541 5537 5536 5535 5537 5540 5541 5545 5548 5552 5556 5560 5564 5569 5572 5577 5583 5589 5595 5599 5603 5607 5611 5616 5621 5624 5628 5632 5635 5637 5640 5644 5648 5649
5589 5585 5578 5571 5564 5556 5552 5551 5550 5550 5549 5546 5544 5544 5544 5547 5548 5551 5554 5558 5561 5564 5568 5571 5576 5581 5586 5591 5595 5599 5604 5608 5612 5616 5620 5624 5627 5630 5633 5635 5638 5640 5644 5643
5586 5581 5576 5570 5564 5557 5554 5553 5554 5553 5554 5552 5550 5550 5549 5550 5554 5557 5559 5563 5565 5568 5571 5574 5579 5583 5587 5592 5596 5600 5604 5608 5612 5616 5619 5622 5625 5628 5630 5632 5633 5636 5638 5640
5582 5578 5573 5569 5564 5557 5554 5555 5556 5557 5558 5556 5555 5554 5553 5554 5556 5559 5563 5566 5568 5570 5573 5576 5580 5584 5588 5593 5597 5600 5604 5608 5611 5614 5617 5620 5622 5624 5626 5628 5630 5633 5634 5634
5578 5574 5571 5567 5563 5558 5556 5557 5559 5560 5562 5561 5560 5560 5559 5559 5560 5562 5565 5568 5570 5573 5575 5577 5581 5585 5589 5592 5596 5599 5604 5607 5610 5613 5615 5618 5621 5622 5623 5625 5627 5628 5629 5629
5575 5570 5568 5565 5561 5558 5557 5558 5560 5563 5565 5565 5564 5564 5564 5564 5565 5566 5568 5570 5571 5574 5576 5579 5582 5586 5590 5593 5596 5600 5603 5606 5609 5611 5614 5617 5619 5619 5621 5622 5622 5623 5624 5624
5571 5567 5564 5562 5559 5557 5557 5558 5561 5564 5566 5566 5566 5567 5567 5568 5569 5569 5571 5573 5574 5576 5578 5581 5584 5587 5590 5593 5596 5599 5602 5605 5607 5609 5611 5614 5614 5616 5617 5618 5620 5620 5620 5621
5567 5565 5561 5559 5557 5555 5556 5558 5561 5562 5566 5568 5569 5569 5570 5570 5571 5572 5573 5575 5576 5578 5580 5582 5584 5587 5590 5593 5595 5598 5600 5602 5605 5606 5609 5610 5611 5613 5614 5615 5617 5617 5617 5617
5562 5561 5558 5556 5555 5555 5556 5559 5561 5562 5564 5566 5568 5569 5570 5570 5572 5573 5575 5576 5578 5579 5580 5582 5584 5586 5589 5591 5592 5594 5596 5598 5601 5602 5605 5607 5608 5609 5610 5613 5617 5615 5614 5614
5559 5555 5554 5552 5553 5553 5554 5557 5558 5561 5562 5565 5566 5568 5570 5571 5572 5574 5576 5577 5578 5579 5581 5582 5583 5584 5587 5588 5590 5591 5593 5595 5597 5599 5600 5603 5603 5605 5608 5610 5611 5612 5613 5613
5552 5550 5548 5547 5546 5547 5548 5550 5554 5557 5560 5563 5564 5566 5569 5571 5573 5574 5575 5577 5577 5578 5579 5580 5580 5582 5584 5586 5587 5588 5591 5593 5594 5595 5597 5598 5599 5602 5604 5606 5608 5610 5611 5611
5544 5542 5541 5540 5539 5539 5540 5542 5547 5552 5555 5559 5561 5563 5566 5569 5571 5573 5574 5575 5576 5577 5577 5578 5579 5580 5582 5583 5584 5585 5587 5588 5589 5591 5592 5594 5596 5598 5600 5602 5605 5607 5608 5609
5534 5533 5532 5531 5530 5530 5530 5532 5539 5546 5551 5555 5558 5560 5563 5565 5568 5570 5572 5573 5574 5575 5575 5576 5577 5578 5579 5579 5580 5582 5583 5585 5586 5587 5588 5590 5592 5595 5597 5599 5602 5603 5605 5606
5525 5523 5522 5520 5519 5520 5520 5522 5530 5539 5547 5550 5553 5556 5558 5561 5564 5566 5568 5569 5570 5571 5572 5573 5573 5573 5574 5574 5577 5578 5578 5580 5582 5582 5585 5587 5589 5591 5594 5596 5598 5600 5602 5602
5515 5513 5511 5509 5507 5507 5507 5512 5524 5534 5542 5546 5549 5551 5554 5557 5560 5562 5563 5564 5565 5566 5566 5567 5568 5568 5568 5570 5572 5572 5574 5576 5577 5577 5581 5583 5584 5587 5590 5592 5595 5596 5598 5598
5505 5503 5500 5496 5494 5493 5497 5509 5521 5530 5538 5542 5545 5547 5551 5553 5556 5557 5558 5559 5560 5560 5560 5561 5561 5562 5562 5564 5566 5567 5571 5571 5572 5573 5576 5578 5580 5583 5585 5588 5591 5592 5593 5594
5498 5495 5490 5485 5483 5487 5497 5510 5520 5529 5535 5539 5542 5546 5548 5550 5552 5553 5553 5555 5555 5555 5554 5555 5554 5555 5556 5558 5561 5563 5564 5565 5567 5568 5570 5573 5576 5579 5582 5584 5587 5588 5590 5590
5493 5488 5484 5483 5486 5495 5505 5513 5520 5527 5534 5537 5541 5543 5546 5546 5547 5548 5550 5550 5550 5550 5550 5549 5549 5548 5549 5553 5554 5556 5558 5559 5562 5563 5565 5568 5571 5574 5577 5580 5583 5584 5585 5586
5491 5490 5490 5494 5498 5503 5510 5516 5522 5527 5532 5536 5539 5541 5542 5542 5543 5544 5546 5546 5545 5546 5547 5545 5545 5545 5545 5546 5548 5550 5552 5554 5557 5558 5561 5563 5567 5570 5573 5576 5578 5580 5581 5581
5496 5497 5499 5501 5504 5508 5513 5517 5522 5527 5532 5535 5537 5538 5538 5539 5539 5541 5542 5542 5543 5543 5544 5542 5541 5542 5542 5543 5544 5546 5547 5549 5551 5554 5557 5559 5563 5566 5568 5571 5574 5575 5576 5576
5499 5501 5501 5505 5508 5510 5514 5518 5523 5527 5530 5533 5535 5536 5536 5536 5537 5538 5539 5540 5540 5540 5540 5539 5538 5538 5539 5540 5541 5542 5543 5545 5547 5550 5553 5556 5559 5561 5564 5567 5568 5570 5570 5570
5498 5501 5502 5505 5509 5511 5515 5519 5523 5526 5528 5530 5532 5534 5534 5534 5535 5536 5537 5537 5539 5538 5538 5537 5537 5536 5535 5536 5537 5538 5540 5542 5545 5548 5551 5553 5555 5556 5559 5561 5563 5564 5565 5566
5495 5499 5501 5504 5507 5510 5515 5518 5521 5524 5526 5529 5530 5531 5532 5532 5533 5533 5535 5536 5536 5537 5536 5536 5534 5532 5531 5533 5535 5536 5538 5540 5542 5545 5547 5549 5551 5553 5554 5556 5558 5559 5560 5561
5490 5495 5497 5501 5505 5509 5512 5516 5519 5522 5524 5526 5527 5529 5530 5530 5531 5531 5532 5533 5534 5535 5535 5535 5534 5534 5533 5533 5533 5534 5536 5538 5539 5541 5544 5546 5547 5549 5551 5552 5553 5554 5556 5557
5484 5488 5494 5499 5502 5506 5510 5513 5516 5519 5521 5523 5525 5526 5527 5528 5529 5530 5530 5531 5531 5532 5532 5533 5533 5533 5533 5533 5533 5534 5534 5535 5536 5538 5539 5541 5543 5545 5546 5547 5548 5549 5550 5551
5479 5485 5490 5494 5496 5499 5503 5508 5511 5514 5517 5519 5521 5523 5524 5525 5526 5527 5527 5528 5529 5529 5530 5530 5531 5531 5532 5532 5532 5532 5533 5534 5535 5536 5536 5537 5539 5540 5541 5543 5544 5545 5546 5547